owner,sensor,date,latitude,longitude,vertical_datum,wind_speed,wind_to_direction,wind_speed_of_gust,qcFlag 
NOS,ioos:station:wmo:fpst2:1,2018-11-01T00:00:00Z,28.9360,-95.2940,15.0,9.7,164.0,10.9,'11111222,11111222,11111222' 
NOS,ioos:station:wmo:fpst2:1,2018-11-01T00:06:00Z,28.9360,-95.2940,15.0,9.4,168.0,10.6,'11111222,11111222,11111222' 
NOS,ioos:station:wmo:fpst2:1,2018-11-01T00:12:00Z,28.9360,-95.2940,15.0,9.2,174.0,10.4,'11111222,11111222,11111222' 
NOS,ioos:station:wmo:fpst2:1,2018-11-01T00:18:00Z,28.9360,-95.2940,15.0,8.5,174.0,9.7,'11111222,11111222,11111222' 
NOS,ioos:station:wmo:fpst2:1,2018-11-01T00:24:00Z,28.9360,-95.2940,15.0,7.8,177.0,9.4,'11111222,11111222,11111222' 
NOS,ioos:station:wmo:fpst2:1,2018-11-01T00:30:00Z,28.9360,-95.2940,15.0,8.0,178.0,9.2,'11111222,11111222,11111222' 
NOS,ioos:station:wmo:fpst2:1,2018-11-01T00:36:00Z,28.9360,-95.2940,15.0,9.2,177.0,10.5,'11111222,11111222,11111222' 
NOS,ioos:station:wmo:fpst2:1,2018-11-01T00:42:00Z,28.9360,-95.2940,15.0,10.1,178.0,11.6,'11111222,11111222,11111222' 
NOS,ioos:station:wmo:fpst2:1,2018-11-01T00:48:00Z,28.9360,-95.2940,15.0,9.6,178.0,11.1,'11111222,11111222,11111222' 
NOS,ioos:station:wmo:fpst2:1,2018-11-01T00:54:00Z,28.9360,-95.2940,15.0,9.7,177.0,11.3,'11111222,11111222,11111222' 
NOS,ioos:station:wmo:fpst2:1,2018-11-01T01:00:00Z,28.9360,-95.2940,15.0,9.8,177.0,11.5,'11111222,11111222,11111222' 
NOS,ioos:station:wmo:fpst2:1,2018-11-01T01:06:00Z,28.9360,-95.2940,15.0,10.6,175.0,12.2,'11111222,11111222,11111222' 
NOS,ioos:station:wmo:fpst2:1,2018-11-01T01:12:00Z,28.9360,-95.2940,15.0,10.7,174.0,12.1,'11111222,11111222,11111222' 
NOS,ioos:station:wmo:fpst2:1,2018-11-01T01:18:00Z,28.9360,-95.2940,15.0,10.1,174.0,12.7,'11111222,11111222,11111222' 
NOS,ioos:station:wmo:fpst2:1,2018-11-01T01:24:00Z,28.9360,-95.2940,15.0,10.7,173.0,12.8,'11111222,11111222,11111222' 
NOS,ioos:station:wmo:fpst2:1,2018-11-01T01:30:00Z,28.9360,-95.2940,15.0,10.2,175.0,11.5,'11111222,11111222,11111222' 
NOS,ioos:station:wmo:fpst2:1,2018-11-01T01:36:00Z,28.9360,-95.2940,15.0,10.0,176.0,11.8,'11111222,11111222,11111222' 
NOS,ioos:station:wmo:fpst2:1,2018-11-01T01:42:00Z,28.9360,-95.2940,15.0,9.0,179.0,10.7,'11111222,11111222,11111222' 
NOS,ioos:station:wmo:fpst2:1,2018-11-01T01:48:00Z,28.9360,-95.2940,15.0,9.1,176.0,10.8,'11111222,11111222,11111222' 
NOS,ioos:station:wmo:fpst2:1,2018-11-01T01:54:00Z,28.9360,-95.2940,15.0,9.7,182.0,11.3,'11111222,11111222,11111222' 
NOS,ioos:station:wmo:fpst2:1,2018-11-01T02:00:00Z,28.9360,-95.2940,15.0,9.8,182.0,11.4,'11111222,11111222,11111222' 
NOS,ioos:station:wmo:fpst2:1,2018-11-01T02:06:00Z,28.9360,-95.2940,15.0,9.2,181.0,10.5,'11111222,11111222,11111222' 
NOS,ioos:station:wmo:fpst2:1,2018-11-01T02:12:00Z,28.9360,-95.2940,15.0,9.7,189.0,11.2,'11111222,11111222,11111222' 
NOS,ioos:station:wmo:fpst2:1,2018-11-01T02:18:00Z,28.9360,-95.2940,15.0,9.2,191.0,10.8,'11111222,11111222,11111222' 
NOS,ioos:station:wmo:fpst2:1,2018-11-01T02:24:00Z,28.9360,-95.2940,15.0,8.8,196.0,10.0,'11111222,11111222,11111222' 
NOS,ioos:station:wmo:fpst2:1,2018-11-01T02:30:00Z,28.9360,-95.2940,15.0,9.2,193.0,11.0,'11111222,11111222,11111222' 
NOS,ioos:station:wmo:fpst2:1,2018-11-01T02:36:00Z,28.9360,-95.2940,15.0,10.2,191.0,11.4,'11111222,11111222,11111222' 
NOS,ioos:station:wmo:fpst2:1,2018-11-01T02:42:00Z,28.9360,-95.2940,15.0,9.6,190.0,11.1,'11111222,11111222,11111222' 
NOS,ioos:station:wmo:fpst2:1,2018-11-01T02:48:00Z,28.9360,-95.2940,15.0,9.7,188.0,11.8,'11111222,11111222,11111222' 
NOS,ioos:station:wmo:fpst2:1,2018-11-01T02:54:00Z,28.9360,-95.2940,15.0,10.9,189.0,12.5,'11111222,11111222,11111222' 
NOS,ioos:station:wmo:fpst2:1,2018-11-01T03:00:00Z,28.9360,-95.2940,15.0,11.7,192.0,12.9,'11111222,11111222,11111222' 
NOS,ioos:station:wmo:fpst2:1,2018-11-01T03:06:00Z,28.9360,-95.2940,15.0,11.5,194.0,13.0,'11111222,11111222,11111222' 
NOS,ioos:station:wmo:fpst2:1,2018-11-01T03:12:00Z,28.9360,-95.2940,15.0,11.0,199.0,12.8,'11111222,11111222,11111222' 
NOS,ioos:station:wmo:fpst2:1,2018-11-01T03:18:00Z,28.9360,-95.2940,15.0,10.2,204.0,11.8,'11111222,11111222,11111222' 
NOS,ioos:station:wmo:fpst2:1,2018-11-01T03:24:00Z,28.9360,-95.2940,15.0,10.3,201.0,11.5,'11111222,11111222,11111222' 
NOS,ioos:station:wmo:fpst2:1,2018-11-01T03:30:00Z,28.9360,-95.2940,15.0,7.2,235.0,11.7,'11111222,11111222,11111222' 
NOS,ioos:station:wmo:fpst2:1,2018-11-01T03:36:00Z,28.9360,-95.2940,15.0,9.0,307.0,11.6,'11111222,11111222,11111222' 
NOS,ioos:station:wmo:fpst2:1,2018-11-01T03:42:00Z,28.9360,-95.2940,15.0,7.9,348.0,12.6,'11111222,11111222,11111222' 
NOS,ioos:station:wmo:fpst2:1,2018-11-01T03:48:00Z,28.9360,-95.2940,15.0,8.3,328.0,12.5,'11111222,11111222,11111222' 
NOS,ioos:station:wmo:fpst2:1,2018-11-01T03:54:00Z,28.9360,-95.2940,15.0,8.2,334.0,13.1,'11111222,11111222,11111222' 
NOS,ioos:station:wmo:fpst2:1,2018-11-01T04:00:00Z,28.9360,-95.2940,15.0,9.8,344.0,12.9,'11111222,11111222,11111222' 
NOS,ioos:station:wmo:fpst2:1,2018-11-01T04:06:00Z,28.9360,-95.2940,15.0,9.4,348.0,12.1,'11111222,11111222,11111222' 
NOS,ioos:station:wmo:fpst2:1,2018-11-01T04:12:00Z,28.9360,-95.2940,15.0,8.2,342.0,13.1,'11111222,11111222,11111222' 
NOS,ioos:station:wmo:fpst2:1,2018-11-01T04:18:00Z,28.9360,-95.2940,15.0,8.4,327.0,13.0,'11111222,11111222,11111222' 
NOS,ioos:station:wmo:fpst2:1,2018-11-01T04:24:00Z,28.9360,-95.2940,15.0,8.5,330.0,12.7,'11111222,11111222,11111222' 
NOS,ioos:station:wmo:fpst2:1,2018-11-01T04:30:00Z,28.9360,-95.2940,15.0,7.8,351.0,12.0,'11111222,11111222,11111222' 
NOS,ioos:station:wmo:fpst2:1,2018-11-01T04:36:00Z,28.9360,-95.2940,15.0,7.9,345.0,10.8,'11111222,11111222,11111222' 
NOS,ioos:station:wmo:fpst2:1,2018-11-01T04:42:00Z,28.9360,-95.2940,15.0,7.6,342.0,9.5,'11111222,11111222,11111222' 
NOS,ioos:station:wmo:fpst2:1,2018-11-01T04:48:00Z,28.9360,-95.2940,15.0,6.6,344.0,8.7,'11111222,11111222,11111222' 
NOS,ioos:station:wmo:fpst2:1,2018-11-01T04:54:00Z,28.9360,-95.2940,15.0,5.0,340.0,8.9,'11111222,11111222,11111222' 
NOS,ioos:station:wmo:fpst2:1,2018-11-01T05:00:00Z,28.9360,-95.2940,15.0,5.2,338.0,8.1,'11111222,11111222,11111222' 
NOS,ioos:station:wmo:fpst2:1,2018-11-01T05:06:00Z,28.9360,-95.2940,15.0,7.0,344.0,9.7,'11111222,11111222,11111222' 
NOS,ioos:station:wmo:fpst2:1,2018-11-01T05:18:00Z,28.9360,-95.2940,15.0,6.8,350.0,9.4,'11111222,11111222,11111222' 
NOS,ioos:station:wmo:fpst2:1,2018-11-01T05:24:00Z,28.9360,-95.2940,15.0,5.6,334.0,7.9,'11111222,11111222,11111222' 
NOS,ioos:station:wmo:fpst2:1,2018-11-01T05:30:00Z,28.9360,-95.2940,15.0,6.8,333.0,9.0,'11111222,11111222,11111222' 
NOS,ioos:station:wmo:fpst2:1,2018-11-01T05:36:00Z,28.9360,-95.2940,15.0,5.2,333.0,8.9,'11111222,11111222,11111222' 
NOS,ioos:station:wmo:fpst2:1,2018-11-01T05:42:00Z,28.9360,-95.2940,15.0,5.7,333.0,7.3,'11111222,11111222,11111222' 
NOS,ioos:station:wmo:fpst2:1,2018-11-01T05:48:00Z,28.9360,-95.2940,15.0,4.6,341.0,6.6,'11111222,11111222,11111222' 
NOS,ioos:station:wmo:fpst2:1,2018-11-01T05:54:00Z,28.9360,-95.2940,15.0,4.9,347.0,6.6,'11111222,11111222,11111222' 
NOS,ioos:station:wmo:fpst2:1,2018-11-01T06:00:00Z,28.9360,-95.2940,15.0,4.0,337.0,5.8,'11111222,11111222,11111222' 
NOS,ioos:station:wmo:fpst2:1,2018-11-01T06:06:00Z,28.9360,-95.2940,15.0,5.0,352.0,6.4,'11111222,11111222,11111222' 
NOS,ioos:station:wmo:fpst2:1,2018-11-01T06:12:00Z,28.9360,-95.2940,15.0,4.2,303.0,6.8,'11111222,11111222,11111222' 
NOS,ioos:station:wmo:fpst2:1,2018-11-01T06:18:00Z,28.9360,-95.2940,15.0,5.6,346.0,7.5,'11111222,11111222,11111222' 
NOS,ioos:station:wmo:fpst2:1,2018-11-01T06:24:00Z,28.9360,-95.2940,15.0,5.0,334.0,7.5,'11111222,11111222,11111222' 
NOS,ioos:station:wmo:fpst2:1,2018-11-01T06:30:00Z,28.9360,-95.2940,15.0,5.2,325.0,6.7,'11111222,11111222,11111222' 
NOS,ioos:station:wmo:fpst2:1,2018-11-01T06:36:00Z,28.9360,-95.2940,15.0,4.2,310.0,5.5,'11111222,11111222,11111222' 
NOS,ioos:station:wmo:fpst2:1,2018-11-01T06:42:00Z,28.9360,-95.2940,15.0,5.4,338.0,6.3,'11111222,11111222,11111222' 
NOS,ioos:station:wmo:fpst2:1,2018-11-01T06:48:00Z,28.9360,-95.2940,15.0,3.9,313.0,6.5,'11111222,11111222,11111222' 
NOS,ioos:station:wmo:fpst2:1,2018-11-01T06:54:00Z,28.9360,-95.2940,15.0,4.8,341.0,6.0,'11111222,11111222,11111222' 
NOS,ioos:station:wmo:fpst2:1,2018-11-01T07:00:00Z,28.9360,-95.2940,15.0,4.0,334.0,6.2,'11111222,11111222,11111222' 
NOS,ioos:station:wmo:fpst2:1,2018-11-01T07:06:00Z,28.9360,-95.2940,15.0,4.3,336.0,6.7,'11111222,11111222,11111222' 
NOS,ioos:station:wmo:fpst2:1,2018-11-01T07:12:00Z,28.9360,-95.2940,15.0,3.2,353.0,4.6,'11111222,11111222,11111222' 
NOS,ioos:station:wmo:fpst2:1,2018-11-01T07:18:00Z,28.9360,-95.2940,15.0,3.2,354.0,4.0,'11111222,11111222,11111222' 
NOS,ioos:station:wmo:fpst2:1,2018-11-01T07:24:00Z,28.9360,-95.2940,15.0,2.8,339.0,4.0,'11111222,11111222,11111222' 
NOS,ioos:station:wmo:fpst2:1,2018-11-01T07:30:00Z,28.9360,-95.2940,15.0,2.8,337.0,4.3,'11111222,11111222,11111222' 
NOS,ioos:station:wmo:fpst2:1,2018-11-01T07:36:00Z,28.9360,-95.2940,15.0,3.9,338.0,4.9,'11111222,11111222,11111222' 
NOS,ioos:station:wmo:fpst2:1,2018-11-01T07:42:00Z,28.9360,-95.2940,15.0,1.8,329.0,4.5,'11111222,11111222,11111222' 
NOS,ioos:station:wmo:fpst2:1,2018-11-01T07:48:00Z,28.9360,-95.2940,15.0,2.4,331.0,3.7,'11111222,11111222,11111222' 
NOS,ioos:station:wmo:fpst2:1,2018-11-01T07:54:00Z,28.9360,-95.2940,15.0,3.1,324.0,4.3,'11111222,11111222,11111222' 
NOS,ioos:station:wmo:fpst2:1,2018-11-01T08:00:00Z,28.9360,-95.2940,15.0,2.8,312.0,4.8,'11111222,11111222,11111222' 
NOS,ioos:station:wmo:fpst2:1,2018-11-01T08:06:00Z,28.9360,-95.2940,15.0,3.7,310.0,4.7,'11111222,11111222,11111222' 
NOS,ioos:station:wmo:fpst2:1,2018-11-01T08:12:00Z,28.9360,-95.2940,15.0,4.6,308.0,5.3,'11111222,11111222,11111222' 
NOS,ioos:station:wmo:fpst2:1,2018-11-01T08:18:00Z,28.9360,-95.2940,15.0,5.5,307.0,6.4,'11111222,11111222,11111222' 
NOS,ioos:station:wmo:fpst2:1,2018-11-01T08:24:00Z,28.9360,-95.2940,15.0,4.5,313.0,5.9,'11111222,11111222,11111222' 
NOS,ioos:station:wmo:fpst2:1,2018-11-01T08:30:00Z,28.9360,-95.2940,15.0,4.7,313.0,6.2,'11111222,11111222,11111222' 
NOS,ioos:station:wmo:fpst2:1,2018-11-01T08:36:00Z,28.9360,-95.2940,15.0,4.5,310.0,5.8,'11111222,11111222,11111222' 
NOS,ioos:station:wmo:fpst2:1,2018-11-01T08:42:00Z,28.9360,-95.2940,15.0,4.1,307.0,5.0,'11111222,11111222,11111222' 
NOS,ioos:station:wmo:fpst2:1,2018-11-01T08:48:00Z,28.9360,-95.2940,15.0,3.9,304.0,5.3,'11111222,11111222,11111222' 
NOS,ioos:station:wmo:fpst2:1,2018-11-01T08:54:00Z,28.9360,-95.2940,15.0,4.7,307.0,6.0,'11111222,11111222,11111222' 
NOS,ioos:station:wmo:fpst2:1,2018-11-01T09:00:00Z,28.9360,-95.2940,15.0,5.7,314.0,7.5,'11111222,11111222,11111222' 
NOS,ioos:station:wmo:fpst2:1,2018-11-01T09:06:00Z,28.9360,-95.2940,15.0,5.3,311.0,7.1,'11111222,11111222,11111222' 
NOS,ioos:station:wmo:fpst2:1,2018-11-01T09:12:00Z,28.9360,-95.2940,15.0,6.0,312.0,7.4,'11111222,11111222,11111222' 
NOS,ioos:station:wmo:fpst2:1,2018-11-01T09:18:00Z,28.9360,-95.2940,15.0,6.2,311.0,7.7,'11111222,11111222,11111222' 
NOS,ioos:station:wmo:fpst2:1,2018-11-01T09:24:00Z,28.9360,-95.2940,15.0,4.9,317.0,7.5,'11111222,11111222,11111222' 
NOS,ioos:station:wmo:fpst2:1,2018-11-01T09:30:00Z,28.9360,-95.2940,15.0,5.3,311.0,6.6,'11111222,11111222,11111222' 
NOS,ioos:station:wmo:fpst2:1,2018-11-01T09:36:00Z,28.9360,-95.2940,15.0,5.1,310.0,6.1,'11111222,11111222,11111222' 
NOS,ioos:station:wmo:fpst2:1,2018-11-01T09:42:00Z,28.9360,-95.2940,15.0,6.3,302.0,8.2,'11111222,11111222,11111222' 
NOS,ioos:station:wmo:fpst2:1,2018-11-01T09:48:00Z,28.9360,-95.2940,15.0,8.2,305.0,11.6,'11111222,11111222,11111222' 
NOS,ioos:station:wmo:fpst2:1,2018-11-01T09:54:00Z,28.9360,-95.2940,15.0,7.8,309.0,9.9,'11111222,11111222,11111222' 
NOS,ioos:station:wmo:fpst2:1,2018-11-01T10:00:00Z,28.9360,-95.2940,15.0,7.2,310.0,9.6,'11111222,11111222,11111222' 
NOS,ioos:station:wmo:fpst2:1,2018-11-01T10:06:00Z,28.9360,-95.2940,15.0,8.1,307.0,10.7,'11111222,11111222,11111222' 
NOS,ioos:station:wmo:fpst2:1,2018-11-01T10:12:00Z,28.9360,-95.2940,15.0,10.1,292.0,12.3,'11111222,11111222,11111222' 
NOS,ioos:station:wmo:fpst2:1,2018-11-01T10:18:00Z,28.9360,-95.2940,15.0,10.8,289.0,12.3,'11111222,11111222,11111222' 
NOS,ioos:station:wmo:fpst2:1,2018-11-01T10:24:00Z,28.9360,-95.2940,15.0,10.8,291.0,13.0,'11111222,11111222,11111222' 
NOS,ioos:station:wmo:fpst2:1,2018-11-01T10:30:00Z,28.9360,-95.2940,15.0,9.5,311.0,13.1,'11111222,11111222,11111222' 
NOS,ioos:station:wmo:fpst2:1,2018-11-01T10:36:00Z,28.9360,-95.2940,15.0,8.1,292.0,10.2,'11111222,11111222,11111222' 
NOS,ioos:station:wmo:fpst2:1,2018-11-01T10:42:00Z,28.9360,-95.2940,15.0,8.2,302.0,10.7,'11111222,11111222,11111222' 
NOS,ioos:station:wmo:fpst2:1,2018-11-01T10:48:00Z,28.9360,-95.2940,15.0,8.9,291.0,11.5,'11111222,11111222,11111222' 
NOS,ioos:station:wmo:fpst2:1,2018-11-01T10:54:00Z,28.9360,-95.2940,15.0,8.8,300.0,11.7,'11111222,11111222,11111222' 
NOS,ioos:station:wmo:fpst2:1,2018-11-01T11:00:00Z,28.9360,-95.2940,15.0,8.1,290.0,9.8,'11111222,11111222,11111222' 
NOS,ioos:station:wmo:fpst2:1,2018-11-01T11:06:00Z,28.9360,-95.2940,15.0,7.9,286.0,10.4,'11111222,11111222,11111222' 
NOS,ioos:station:wmo:fpst2:1,2018-11-01T11:12:00Z,28.9360,-95.2940,15.0,9.1,291.0,10.6,'11111222,11111222,11111222' 
NOS,ioos:station:wmo:fpst2:1,2018-11-01T11:18:00Z,28.9360,-95.2940,15.0,9.0,293.0,11.8,'11111222,11111222,11111222' 
NOS,ioos:station:wmo:fpst2:1,2018-11-01T11:24:00Z,28.9360,-95.2940,15.0,8.2,309.0,10.8,'11111222,11111222,11111222' 
NOS,ioos:station:wmo:fpst2:1,2018-11-01T11:30:00Z,28.9360,-95.2940,15.0,9.8,298.0,12.5,'11111222,11111222,11111222' 
NOS,ioos:station:wmo:fpst2:1,2018-11-01T11:36:00Z,28.9360,-95.2940,15.0,9.9,299.0,13.2,'11111222,11111222,11111222' 
NOS,ioos:station:wmo:fpst2:1,2018-11-01T11:42:00Z,28.9360,-95.2940,15.0,5.9,309.0,12.1,'11111222,11111222,11111222' 
NOS,ioos:station:wmo:fpst2:1,2018-11-01T11:48:00Z,28.9360,-95.2940,15.0,8.7,293.0,9.8,'11111222,11111222,11111222' 
NOS,ioos:station:wmo:fpst2:1,2018-11-01T11:54:00Z,28.9360,-95.2940,15.0,6.6,318.0,9.0,'11111222,11111222,11111222' 
NOS,ioos:station:wmo:fpst2:1,2018-11-01T12:00:00Z,28.9360,-95.2940,15.0,7.1,309.0,9.7,'11111222,11111222,11111222' 
NOS,ioos:station:wmo:fpst2:1,2018-11-01T12:06:00Z,28.9360,-95.2940,15.0,6.7,306.0,8.8,'11111222,11111222,11111222' 
NOS,ioos:station:wmo:fpst2:1,2018-11-01T12:12:00Z,28.9360,-95.2940,15.0,6.4,311.0,9.6,'11111222,11111222,11111222' 
NOS,ioos:station:wmo:fpst2:1,2018-11-01T12:18:00Z,28.9360,-95.2940,15.0,7.0,300.0,9.8,'11111222,11111222,11111222' 
NOS,ioos:station:wmo:fpst2:1,2018-11-01T12:24:00Z,28.9360,-95.2940,15.0,9.1,288.0,11.2,'11111222,11111222,11111222' 
NOS,ioos:station:wmo:fpst2:1,2018-11-01T12:30:00Z,28.9360,-95.2940,15.0,10.3,289.0,12.2,'11111222,11111222,11111222' 
NOS,ioos:station:wmo:fpst2:1,2018-11-01T12:36:00Z,28.9360,-95.2940,15.0,10.7,294.0,13.0,'11111222,11111222,11111222' 
NOS,ioos:station:wmo:fpst2:1,2018-11-01T12:42:00Z,28.9360,-95.2940,15.0,8.5,305.0,12.6,'11111222,11111222,11111222' 
NOS,ioos:station:wmo:fpst2:1,2018-11-01T12:48:00Z,28.9360,-95.2940,15.0,7.0,307.0,9.4,'11111222,11111222,11111222' 
NOS,ioos:station:wmo:fpst2:1,2018-11-01T12:54:00Z,28.9360,-95.2940,15.0,8.7,307.0,11.5,'11111222,11111222,11111222' 
NOS,ioos:station:wmo:fpst2:1,2018-11-01T13:00:00Z,28.9360,-95.2940,15.0,10.7,304.0,13.2,'11111222,11111222,11111222' 
NOS,ioos:station:wmo:fpst2:1,2018-11-01T13:06:00Z,28.9360,-95.2940,15.0,9.0,308.0,13.5,'11111222,11111222,11111222' 
NOS,ioos:station:wmo:fpst2:1,2018-11-01T13:12:00Z,28.9360,-95.2940,15.0,8.5,309.0,12.5,'11111222,11111222,11111222' 
NOS,ioos:station:wmo:fpst2:1,2018-11-01T13:18:00Z,28.9360,-95.2940,15.0,8.1,309.0,10.8,'11111222,11111222,11111222' 
NOS,ioos:station:wmo:fpst2:1,2018-11-01T13:24:00Z,28.9360,-95.2940,15.0,7.5,306.0,10.4,'11111222,11111222,11111222' 
NOS,ioos:station:wmo:fpst2:1,2018-11-01T13:30:00Z,28.9360,-95.2940,15.0,7.1,312.0,9.7,'11111222,11111222,11111222' 
NOS,ioos:station:wmo:fpst2:1,2018-11-01T13:36:00Z,28.9360,-95.2940,15.0,7.4,300.0,10.1,'11111222,11111222,11111222' 
NOS,ioos:station:wmo:fpst2:1,2018-11-01T13:42:00Z,28.9360,-95.2940,15.0,7.6,307.0,10.5,'11111222,11111222,11111222' 
NOS,ioos:station:wmo:fpst2:1,2018-11-01T13:48:00Z,28.9360,-95.2940,15.0,6.8,313.0,10.8,'11111222,11111222,11111222' 
NOS,ioos:station:wmo:fpst2:1,2018-11-01T13:54:00Z,28.9360,-95.2940,15.0,8.2,307.0,10.2,'11111222,11111222,11111222' 
NOS,ioos:station:wmo:fpst2:1,2018-11-01T14:00:00Z,28.9360,-95.2940,15.0,9.6,304.0,12.3,'11111222,11111222,11111222' 
NOS,ioos:station:wmo:fpst2:1,2018-11-01T14:06:00Z,28.9360,-95.2940,15.0,8.3,311.0,10.9,'11111222,11111222,11111222' 
NOS,ioos:station:wmo:fpst2:1,2018-11-01T14:12:00Z,28.9360,-95.2940,15.0,6.9,312.0,9.1,'11111222,11111222,11111222' 
NOS,ioos:station:wmo:fpst2:1,2018-11-01T14:18:00Z,28.9360,-95.2940,15.0,6.9,315.0,9.1,'11111222,11111222,11111222' 
NOS,ioos:station:wmo:fpst2:1,2018-11-01T14:24:00Z,28.9360,-95.2940,15.0,5.4,320.0,8.0,'11111222,11111222,11111222' 
NOS,ioos:station:wmo:fpst2:1,2018-11-01T14:30:00Z,28.9360,-95.2940,15.0,5.8,322.0,8.5,'11111222,11111222,11111222' 
NOS,ioos:station:wmo:fpst2:1,2018-11-01T14:36:00Z,28.9360,-95.2940,15.0,7.4,303.0,8.6,'11111222,11111222,11111222' 
NOS,ioos:station:wmo:fpst2:1,2018-11-01T14:42:00Z,28.9360,-95.2940,15.0,5.7,307.0,8.4,'11111222,11111222,11111222' 
NOS,ioos:station:wmo:fpst2:1,2018-11-01T14:48:00Z,28.9360,-95.2940,15.0,6.1,312.0,7.7,'11111222,11111222,11111222' 
NOS,ioos:station:wmo:fpst2:1,2018-11-01T14:54:00Z,28.9360,-95.2940,15.0,5.0,313.0,6.6,'11111222,11111222,11111222' 
NOS,ioos:station:wmo:fpst2:1,2018-11-01T15:00:00Z,28.9360,-95.2940,15.0,5.3,317.0,6.9,'11111222,11111222,11111222' 
NOS,ioos:station:wmo:fpst2:1,2018-11-01T15:06:00Z,28.9360,-95.2940,15.0,4.9,310.0,7.1,'11111222,11111222,11111222' 
NOS,ioos:station:wmo:fpst2:1,2018-11-01T15:12:00Z,28.9360,-95.2940,15.0,6.2,318.0,8.2,'11111222,11111222,11111222' 
NOS,ioos:station:wmo:fpst2:1,2018-11-01T15:18:00Z,28.9360,-95.2940,15.0,6.4,308.0,7.8,'11111222,11111222,11111222' 
NOS,ioos:station:wmo:fpst2:1,2018-11-01T15:24:00Z,28.9360,-95.2940,15.0,5.3,319.0,7.5,'11111222,11111222,11111222' 
NOS,ioos:station:wmo:fpst2:1,2018-11-01T15:30:00Z,28.9360,-95.2940,15.0,4.8,318.0,6.7,'11111222,11111222,11111222' 
NOS,ioos:station:wmo:fpst2:1,2018-11-01T15:36:00Z,28.9360,-95.2940,15.0,5.4,340.0,7.1,'11111222,11111222,11111222' 
NOS,ioos:station:wmo:fpst2:1,2018-11-01T15:42:00Z,28.9360,-95.2940,15.0,4.9,345.0,6.0,'11111222,11111222,11111222' 
NOS,ioos:station:wmo:fpst2:1,2018-11-01T15:48:00Z,28.9360,-95.2940,15.0,5.3,348.0,7.5,'11111222,11111222,11111222' 
NOS,ioos:station:wmo:fpst2:1,2018-11-01T15:54:00Z,28.9360,-95.2940,15.0,4.3,347.0,5.7,'11111222,11111222,11111222' 
NOS,ioos:station:wmo:fpst2:1,2018-11-01T16:00:00Z,28.9360,-95.2940,15.0,5.4,357.0,7.1,'11111222,11111222,11111222' 
NOS,ioos:station:wmo:fpst2:1,2018-11-01T16:06:00Z,28.9360,-95.2940,15.0,4.5,357.0,7.6,'11111222,11111222,11111222' 
NOS,ioos:station:wmo:fpst2:1,2018-11-01T16:12:00Z,28.9360,-95.2940,15.0,4.2,356.0,5.8,'11111222,11111222,11111222' 
NOS,ioos:station:wmo:fpst2:1,2018-11-01T16:18:00Z,28.9360,-95.2940,15.0,5.3,329.0,8.0,'11111222,11111222,11111222' 
NOS,ioos:station:wmo:fpst2:1,2018-11-01T16:24:00Z,28.9360,-95.2940,15.0,5.8,328.0,7.4,'11111222,11111222,11111222' 
NOS,ioos:station:wmo:fpst2:1,2018-11-01T16:30:00Z,28.9360,-95.2940,15.0,5.5,333.0,7.5,'11111222,11111222,11111222' 
NOS,ioos:station:wmo:fpst2:1,2018-11-01T16:36:00Z,28.9360,-95.2940,15.0,4.7,330.0,7.3,'11111222,11111222,11111222' 
NOS,ioos:station:wmo:fpst2:1,2018-11-01T16:42:00Z,28.9360,-95.2940,15.0,6.1,324.0,7.8,'11111222,11111222,11111222' 
NOS,ioos:station:wmo:fpst2:1,2018-11-01T16:48:00Z,28.9360,-95.2940,15.0,6.0,332.0,7.1,'11111222,11111222,11111222' 
NOS,ioos:station:wmo:fpst2:1,2018-11-01T16:54:00Z,28.9360,-95.2940,15.0,6.4,330.0,7.8,'11111222,11111222,11111222' 
NOS,ioos:station:wmo:fpst2:1,2018-11-01T17:00:00Z,28.9360,-95.2940,15.0,5.1,327.0,8.5,'11111222,11111222,11111222' 
NOS,ioos:station:wmo:fpst2:1,2018-11-01T17:06:00Z,28.9360,-95.2940,15.0,6.7,325.0,8.9,'11111222,11111222,11111222' 
NOS,ioos:station:wmo:fpst2:1,2018-11-01T17:12:00Z,28.9360,-95.2940,15.0,5.8,349.0,8.7,'11111222,11111222,11111222' 
NOS,ioos:station:wmo:fpst2:1,2018-11-01T17:18:00Z,28.9360,-95.2940,15.0,6.6,324.0,8.0,'11111222,11111222,11111222' 
NOS,ioos:station:wmo:fpst2:1,2018-11-01T17:24:00Z,28.9360,-95.2940,15.0,4.3,328.0,8.0,'11111222,11111222,11111222' 
NOS,ioos:station:wmo:fpst2:1,2018-11-01T17:30:00Z,28.9360,-95.2940,15.0,6.3,341.0,8.3,'11111222,11111222,11111222' 
NOS,ioos:station:wmo:fpst2:1,2018-11-01T17:36:00Z,28.9360,-95.2940,15.0,5.8,320.0,7.7,'11111222,11111222,11111222' 
NOS,ioos:station:wmo:fpst2:1,2018-11-01T17:42:00Z,28.9360,-95.2940,15.0,6.5,338.0,8.3,'11111222,11111222,11111222' 
NOS,ioos:station:wmo:fpst2:1,2018-11-01T17:48:00Z,28.9360,-95.2940,15.0,5.9,335.0,8.7,'11111222,11111222,11111222' 
NOS,ioos:station:wmo:fpst2:1,2018-11-01T17:54:00Z,28.9360,-95.2940,15.0,7.5,334.0,8.8,'11111222,11111222,11111222' 
NOS,ioos:station:wmo:fpst2:1,2018-11-01T18:00:00Z,28.9360,-95.2940,15.0,4.9,329.0,7.6,'11111222,11111222,11111222' 
NOS,ioos:station:wmo:fpst2:1,2018-11-01T18:06:00Z,28.9360,-95.2940,15.0,6.9,329.0,9.4,'11111222,11111222,11111222' 
NOS,ioos:station:wmo:fpst2:1,2018-11-01T18:12:00Z,28.9360,-95.2940,15.0,6.5,309.0,9.1,'11111222,11111222,11111222' 
NOS,ioos:station:wmo:fpst2:1,2018-11-01T18:18:00Z,28.9360,-95.2940,15.0,4.8,321.0,7.3,'11111222,11111222,11111222' 
NOS,ioos:station:wmo:fpst2:1,2018-11-01T18:24:00Z,28.9360,-95.2940,15.0,5.1,325.0,6.6,'11111222,11111222,11111222' 
NOS,ioos:station:wmo:fpst2:1,2018-11-01T18:30:00Z,28.9360,-95.2940,15.0,5.4,300.0,6.9,'11111222,11111222,11111222' 
NOS,ioos:station:wmo:fpst2:1,2018-11-01T18:36:00Z,28.9360,-95.2940,15.0,5.8,325.0,7.6,'11111222,11111222,11111222' 
NOS,ioos:station:wmo:fpst2:1,2018-11-01T18:42:00Z,28.9360,-95.2940,15.0,5.2,327.0,7.6,'11111222,11111222,11111222' 
NOS,ioos:station:wmo:fpst2:1,2018-11-01T18:48:00Z,28.9360,-95.2940,15.0,5.0,311.0,6.2,'11111222,11111222,11111222' 
NOS,ioos:station:wmo:fpst2:1,2018-11-01T18:54:00Z,28.9360,-95.2940,15.0,6.1,302.0,7.1,'11111222,11111222,11111222' 
NOS,ioos:station:wmo:fpst2:1,2018-11-01T19:00:00Z,28.9360,-95.2940,15.0,3.8,314.0,7.0,'11111222,11111222,11111222' 
NOS,ioos:station:wmo:fpst2:1,2018-11-01T19:06:00Z,28.9360,-95.2940,15.0,4.8,335.0,7.5,'11111222,11111222,11111222' 
NOS,ioos:station:wmo:fpst2:1,2018-11-01T19:12:00Z,28.9360,-95.2940,15.0,5.6,328.0,7.6,'11111222,11111222,11111222' 
NOS,ioos:station:wmo:fpst2:1,2018-11-01T19:18:00Z,28.9360,-95.2940,15.0,5.6,321.0,8.5,'11111222,11111222,11111222' 
NOS,ioos:station:wmo:fpst2:1,2018-11-01T20:24:00Z,28.9360,-95.2940,15.0,6.9,308.0,8.3,'11111222,11111222,11111222' 
NOS,ioos:station:wmo:fpst2:1,2018-11-01T20:30:00Z,28.9360,-95.2940,15.0,5.8,306.0,7.9,'11111222,11111222,11111222' 
NOS,ioos:station:wmo:fpst2:1,2018-11-01T20:36:00Z,28.9360,-95.2940,15.0,7.3,312.0,8.3,'11111222,11111222,11111222' 
NOS,ioos:station:wmo:fpst2:1,2018-11-01T20:42:00Z,28.9360,-95.2940,15.0,6.2,304.0,7.4,'11111222,11111222,11111222' 
NOS,ioos:station:wmo:fpst2:1,2018-11-01T20:48:00Z,28.9360,-95.2940,15.0,6.8,321.0,8.8,'11111222,11111222,11111222' 
NOS,ioos:station:wmo:fpst2:1,2018-11-01T20:54:00Z,28.9360,-95.2940,15.0,4.4,318.0,7.7,'11111222,11111222,11111222' 
NOS,ioos:station:wmo:fpst2:1,2018-11-01T21:00:00Z,28.9360,-95.2940,15.0,6.6,311.0,8.0,'11111222,11111222,11111222' 
NOS,ioos:station:wmo:fpst2:1,2018-11-01T21:06:00Z,28.9360,-95.2940,15.0,5.6,319.0,8.5,'11111222,11111222,11111222' 
NOS,ioos:station:wmo:fpst2:1,2018-11-01T21:12:00Z,28.9360,-95.2940,15.0,5.1,318.0,8.1,'11111222,11111222,11111222' 
NOS,ioos:station:wmo:fpst2:1,2018-11-01T21:18:00Z,28.9360,-95.2940,15.0,5.4,323.0,9.0,'11111222,11111222,11111222' 
NOS,ioos:station:wmo:fpst2:1,2018-11-01T21:24:00Z,28.9360,-95.2940,15.0,7.4,304.0,8.6,'11111222,11111222,11111222' 
NOS,ioos:station:wmo:fpst2:1,2018-11-01T21:30:00Z,28.9360,-95.2940,15.0,7.3,314.0,8.9,'11111222,11111222,11111222' 